Showing default

ICEYE-X39, 60546

Orbit data source: Space-Track

ICEYE-X39, 60546 is a Brazilian payload satellite in SSO that was launched on Fri, 16 Aug 2024 UTC via an FALCON 9 launch vehicle from the Air Force Western Test Range (AFWTR). Payload-class satellites include a variety of spacecraft equipped with specific instruments for various scientific and technological missions. These include communications satellites like Starlink; space stations such as the ISS; scientific satellites like the Hubble; Earth observation satellites from companies like Planet Labs, Umbra, and HawkEye 360; GPS; miniature CubeSats for education and research; and military/defense satellites.

Loading next visibility...
Identifier
60546, 2024-149CG
Orbit
SSO
Country
Flag of UnknownUnknown / BRAZ
Related business
Manufacturer
ICEYE
Mission
Operational Commercial Radar Imaging
Bus & Motor
ICEYE, Unknown motor
Mass
80 kg wet, 80 kg dry
Launch date (UTC)
2024-08-16 (1 year ago)
Launch vehicle
FALCON 9
Launch site
Air Force Western Test Range (AFWTR)
Object type
Payload
Rocket body
Debris
Shape & HBR
Box + 1 Pan, 0.8 m
Radar Cross Section
0.776 m², Medium (>0.1 m² and < 1m²)

Expand to show TLE details & history
Last TLE update: 16 hours ago

TLE from 16 hours ago
0 ICEYE-X39
1 60546U 24149CG  26023.46310016  .00005081  00000-0  42607-3 0  9991
2 60546  97.6915 102.4422 0003865 200.4726 159.6342 14.98818941 78433
Epoch: 2026-01-23T11:06Z
TLE epoch observation values (Epoch: 2026-01-23T11:06:51.853Z)
Latitude
-0.00009°
Longitude
172.9246°
Altitude
576.116 km
Speed
7.571 km/s
True Right ascension
06h 49m 46s
True Declination
0° 00' 00"
Sunlit
Object was in full shadow at epoch
Visualization orbit readout
Latitude
Unknown
Longitude
Unknown
Altitude
Unknown
Speed
Unknown
Apparent Right ascension
Unknown
Apparent Declination
Unknown
Sunlit
N/A
Visualization observer readout
Local Sidereal Time
04:08:53
Azimuth
Unknown
Elevation
Unknown
Doppler factor
Unknown
Orbital elements
Apogee altitude
570.235 km
Perigee altitude
564.866 km
Semi-major axis
6,945.688 km
Eccentricity
0.00039
Inclination
97.6915°
RAAN
102.4422°
Arg. of periapsis
200.4726°
True anomaly
159.64961°
Mean anomaly
159.6342°
Eccentric anomaly
159.6419°
Mean motion
3.74947 °/min
Orbital period
96.01 mins
BSTAR
0.00042607
Loading maneuver chart data...
Computing Atmospheric mass density...
Loading historical data...
Loading historical data...
Loading historical data...
Loading historical data...
Loading historical data...
Loading historical data...
Loading historical data...

Documentation

Showing up to 5 results
|